Weather History for Nampa, ID

Change the Weather History Date:

Saturday, July 13, 2013

  Actual Average (KBOI) Record (KBOI)
Temperature  
Mean Temperature 72 °F 76 °F  
Max Temperature 84 °F 91 °F 110 °F (2002)
Min Temperature 59 °F 60 °F 43 °F (1993)
Degree Days  
Heating Degree Days 0 0  
Month to date heating degree days 4  
Since 1 June heating degree days 68  
Since 1 July heating degree days 4  
Cooling Degree Days 6 11  
Month to date cooling degree days 122  
Year to date cooling degree days 305  
Since 1 June cooling degree days 261  
Growing Degree Days 22 (Base 50)    
Moisture  
Dew Point 32 °F    
Average Humidity 23    
Maximum Humidity 52    
Minimum Humidity 15    
Precipitation  
Precipitation 0.00 in 0.01 in 0.71 in (1932)
Month to date precipitation 0.16  
Year to date precipitation 7.09  
Sea Level Pressure  
Sea Level Pressure 30.01 in    
Wind  
Wind Speed 11 mph (NW)    
Max Wind Speed 16 mph    
Max Gust Speed 23 mph    
Visibility 10 miles    
Events      
T = Trace of Precipitation, MM = Missing Value Source: NWS Daily Summary

Daily Weather History Graph

Daily Weather History Graph

Search for Another Location

Airport:

Trip Planner

Search our weather history database for the weather conditions in past years. The results will help you decide how hot, cold, wet, or windy it might be!

Date:

Astronomy

Jul. 13, 2013 Rise Set
Actual Time 6:17 AM MDT 9:26 PM MDT
Civil Twilight 5:42 AM MDT 10:00 PM MDT
Nautical Twilight 4:57 AM MDT 10:45 PM MDT
Astronomical Twilight 4:03 AM MDT 11:39 PM MDT
Moon 11:49 AM MDT (7/13) 11:56 PM MDT (7/13)
Length of Visible Light 16h 18m
Length of Day
15h 08m
Waxing Crescent, 26% of the Moon is Illuminated
Jul 13
Waxing Crescent
Jul 15
First Quarter
Jul 22
Full
Jul 29
Last Quarter
Aug 6
New

Hourly Weather History & Observations

Time (MDT) Temp. Dew Point Humidity Pressure Visibility Wind Dir Wind Speed Gust Speed Precip Events Conditions
12:15 AM 71.6 °F 33.8 °F 25% 29.87 in 10.0 mi West 12.7 mph - N/A   Clear
12:35 AM 69.8 °F 33.8 °F 27% 29.88 in 10.0 mi WNW 13.8 mph 19.6 mph N/A   Clear
12:55 AM 68.0 °F 32.0 °F 26% 29.90 in 10.0 mi WNW 15.0 mph - N/A   Clear
1:15 AM 68.0 °F 30.2 °F 24% 29.91 in 10.0 mi WNW 16.1 mph 20.7 mph N/A   Clear
1:35 AM 66.2 °F 28.4 °F 24% 29.91 in 10.0 mi WNW 13.8 mph 20.7 mph N/A   Clear
1:55 AM 66.2 °F 26.6 °F 23% 29.91 in 10.0 mi WNW 16.1 mph 21.9 mph N/A   Clear
2:15 AM 66.2 °F 24.8 °F 21% 29.93 in 10.0 mi WNW 11.5 mph - N/A   Clear
2:35 AM 66.2 °F 24.8 °F 21% 29.93 in 10.0 mi WNW 13.8 mph - N/A   Clear
2:55 AM 66.2 °F 24.8 °F 21% 29.94 in 10.0 mi WNW 16.1 mph 23.0 mph N/A   Clear
3:15 AM 64.4 °F 26.6 °F 24% 29.95 in 10.0 mi WNW 13.8 mph - N/A   Clear
3:35 AM 64.4 °F 26.6 °F 24% 29.96 in 10.0 mi WNW 15.0 mph 19.6 mph N/A   Clear
3:55 AM 64.4 °F 26.6 °F 24% 29.97 in 10.0 mi WNW 13.8 mph 19.6 mph N/A   Clear
4:15 AM 64.4 °F 28.4 °F 26% 29.98 in 10.0 mi WNW 13.8 mph 19.6 mph N/A   Clear
4:35 AM 62.6 °F 28.4 °F 27% 29.99 in 10.0 mi WNW 13.8 mph - N/A   Clear
4:55 AM 64.4 °F 26.6 °F 24% 29.99 in 10.0 mi NW 13.8 mph 23.0 mph N/A   Clear
5:15 AM 62.6 °F 28.4 °F 27% 30.01 in 10.0 mi WNW 10.4 mph - N/A   Clear
5:35 AM 62.6 °F 28.4 °F 27% 30.02 in 10.0 mi WNW 8.1 mph - N/A   Clear
5:55 AM 62.6 °F 28.4 °F 27% 30.03 in 10.0 mi WNW 5.8 mph - N/A   Clear
6:15 AM 59.0 °F 28.4 °F 31% 30.04 in 10.0 mi WNW 8.1 mph - N/A   Clear
6:35 AM 60.8 °F 28.4 °F 29% 30.04 in 10.0 mi WNW 8.1 mph - N/A   Clear
6:55 AM 60.8 °F 28.4 °F 29% 30.05 in 10.0 mi WNW 8.1 mph - N/A   Clear
7:15 AM 60.8 °F 28.4 °F 29% 30.06 in 10.0 mi WNW 5.8 mph - N/A   Clear
7:35 AM 62.6 °F 28.4 °F 27% 30.07 in 10.0 mi NW 4.6 mph - N/A   Clear
7:55 AM 62.6 °F 28.4 °F 27% 30.07 in 10.0 mi NW 12.7 mph 19.6 mph N/A   Clear
8:15 AM 62.6 °F 28.4 °F 27% 30.07 in 10.0 mi NW 9.2 mph - N/A   Clear
8:35 AM 62.6 °F 28.4 °F 27% 30.08 in 10.0 mi NW 13.8 mph 18.4 mph N/A   Clear
8:55 AM 64.4 °F 28.4 °F 26% 30.09 in 10.0 mi NW 12.7 mph - N/A   Clear
9:15 AM 64.4 °F 30.2 °F 28% 30.09 in 10.0 mi NW 10.4 mph - N/A   Clear
9:35 AM 66.2 °F 32.0 °F 28% 30.09 in 10.0 mi WNW 10.4 mph - N/A   Clear
9:55 AM 66.2 °F 32.0 °F 28% 30.09 in 10.0 mi NW 10.4 mph - N/A   Clear
10:15 AM 68.0 °F 33.8 °F 28% 30.09 in 10.0 mi NW 10.4 mph - N/A   Clear
10:35 AM 68.0 °F 33.8 °F 28% 30.09 in 10.0 mi NNW 9.2 mph - N/A   Clear
10:55 AM 69.8 °F 35.6 °F 28% 30.09 in 10.0 mi NW 8.1 mph - N/A   Clear
11:15 AM 71.6 °F 35.6 °F 27% 30.09 in 10.0 mi NNW 4.6 mph - N/A   Clear
11:35 AM 73.4 °F 33.8 °F 23% 30.09 in 10.0 mi NW 6.9 mph - N/A   Clear
11:55 AM 73.4 °F 33.8 °F 23% 30.09 in 10.0 mi NNW 10.4 mph - N/A   Clear
12:15 PM 75.2 °F 35.6 °F 24% 30.09 in 10.0 mi NW 10.4 mph - N/A   Clear
12:35 PM 75.2 °F 33.8 °F 22% 30.09 in 10.0 mi NNW 6.9 mph - N/A   Clear
12:55 PM 77.0 °F 32.0 °F 19% 30.08 in 10.0 mi NW 9.2 mph 17.3 mph N/A   Clear
1:15 PM 77.0 °F 33.8 °F 21% 30.08 in 10.0 mi NW 9.2 mph - N/A   Clear
1:35 PM 78.8 °F 32.0 °F 18% 30.07 in 10.0 mi NW 8.1 mph - N/A   Clear
1:55 PM 80.6 °F 32.0 °F 17% 30.07 in 10.0 mi NNW 8.1 mph - N/A   Clear
2:15 PM 80.6 °F 32.0 °F 17% 30.06 in 10.0 mi NW 9.2 mph - N/A   Clear
2:35 PM 82.4 °F 33.8 °F 17% 30.05 in 10.0 mi NNW 12.7 mph 17.3 mph N/A   Clear
2:55 PM 82.4 °F 33.8 °F 17% 30.05 in 10.0 mi NNW 10.4 mph - N/A   Clear
3:15 PM 82.4 °F 32.0 °F 16% 30.04 in 10.0 mi NW 12.7 mph - N/A   Clear
3:35 PM 82.4 °F 33.8 °F 17% 30.04 in 10.0 mi North 10.4 mph - N/A   Clear
3:55 PM 84.2 °F 33.8 °F 16% 30.03 in 10.0 mi NW 12.7 mph - N/A   Clear
4:15 PM 84.2 °F 33.8 °F 16% 30.03 in 10.0 mi NW 9.2 mph - N/A   Clear
4:35 PM 84.2 °F 35.6 °F 18% 30.02 in 10.0 mi NNW 10.4 mph - N/A   Clear
4:55 PM 84.2 °F 35.6 °F 18% 30.02 in 10.0 mi North 10.4 mph - N/A   Clear
5:15 PM 84.2 °F 33.8 °F 16% 30.01 in 10.0 mi North 10.4 mph 16.1 mph N/A   Clear
5:35 PM 84.2 °F 33.8 °F 16% 30.00 in 10.0 mi NNW 12.7 mph 16.1 mph N/A   Clear
5:55 PM 84.2 °F 33.8 °F 16% 30.00 in 10.0 mi North 9.2 mph - N/A   Clear
6:15 PM 84.2 °F 33.8 °F 16% 29.99 in 10.0 mi North 9.2 mph - N/A   Clear
6:35 PM 84.2 °F 32.0 °F 15% 29.99 in 10.0 mi North 13.8 mph - N/A   Clear
6:55 PM 84.2 °F 32.0 °F 15% 29.99 in 10.0 mi North 9.2 mph - N/A   Clear
7:15 PM 84.2 °F 32.0 °F 15% 29.99 in 10.0 mi NNW 9.2 mph - N/A   Clear
7:35 PM 84.2 °F 32.0 °F 15% 29.99 in 10.0 mi North 5.8 mph - N/A   Clear
7:55 PM 84.2 °F 32.0 °F 15% 29.98 in 10.0 mi North 6.9 mph - N/A   Clear
8:15 PM 82.4 °F 32.0 °F 16% 29.98 in 10.0 mi North 6.9 mph - N/A   Clear
8:35 PM 82.4 °F 32.0 °F 16% 29.98 in 10.0 mi North 3.5 mph - N/A   Clear
8:55 PM 82.4 °F 32.0 °F 16% 29.98 in 10.0 mi NNW 3.5 mph - N/A   Clear
9:15 PM 82.4 °F 30.2 °F 15% 29.97 in 10.0 mi NW 3.5 mph - N/A   Clear
9:35 PM 75.2 °F 32.0 °F 21% 29.97 in 10.0 mi Calm Calm - N/A   Clear
9:55 PM 75.2 °F 32.0 °F 21% 29.98 in 10.0 mi Calm Calm - N/A   Clear
10:15 PM 73.4 °F 35.6 °F 25% 29.98 in 10.0 mi Calm Calm - N/A   Clear
10:35 PM 68.0 °F 41.0 °F 37% 29.99 in 10.0 mi Calm Calm - N/A   Clear
10:55 PM 66.2 °F 41.0 °F 40% 29.99 in 10.0 mi SE 5.8 mph - N/A   Clear
11:15 PM 68.0 °F 42.8 °F 40% 29.99 in 10.0 mi Calm Calm - N/A   Clear
11:35 PM 64.4 °F 42.8 °F 45% 30.00 in 10.0 mi Calm Calm - N/A   Unknown
11:55 PM 62.6 °F 44.6 °F 52% 30.00 in 10.0 mi Calm Calm - N/A   Clear